Regional Weather Roundup
Issued by NWS Charleston, SC

Current Version | Previous Version | Graphics & Text | Print | Product List | Glossary On
Versions: 1 2 3 4 5 6 7 8 9 10 11 12 13 14 15 16 17 18 19 20 21 22 23 24 25 26 27 28 29 30 31 32 33 34 35 36 37 38 39 40 41 42 43 44 45 46 47 48 49 50
000 ASUS42 KCHS 050226 RWRCHS REGIONAL WEATHER ROUNDUP NATIONAL WEATHER SERVICE CHARLESTON SC 900 PM EST WED MAR 04 2015 NOTE: "FAIR" INDICATES FEW OR NO CLOUDS BELOW 12,000 FEET WITH NO SIGNIFICANT WEATHER AND/OR OBSTRUCTIONS TO VISIBILITY. NOT ALL STATIONS ARE QUALITY CONTROLLED BY THE NATIONAL WEATHER SERVICE. USE DATA WITH CAUTION...ESPECIALLY DEWPOINT OBSERVATIONS. SCZ027-030-031-034>040-042>050-050300- ...SOUTHEAST SOUTH CAROLINA... CITY SKY/WX TMP DP RH WIND PRES REMARKS N CHARLESTON PTCLDY 66 63 90 SW14G22 30.02S WATERFRONT PRK N/A 64 N/A N/A SW14G24 N/A MOUNT PLEASANT FAIR 66 64 94 S9G18 30.03R PINOPOLIS NOT AVBL MONCKS CORNER FAIR 68 63 83 SW12G20 30.01R SUMMERVILLE FAIR 68 63 83 S8G16 30.02R BEAUFORT MCAS PTCLDY 65 62 90 S8 30.02R BEAUFORT ARPT FAIR 64 63 94 S7G17 30.02S HILTON HEAD IS CLEAR 64 63 94 S8G24 30.04S WALTERBORO PTCLDY 68 64 88 S9 30.01S ALLENDALE FAIR 68 59 73 S5 29.99R ...SOUTHERN MIDLANDS AND PEE DEE... CITY SKY/WX TMP DP RH WIND PRES REMARKS GEORGETOWN NOT AVBL KINGSTREE NOT AVBL ORANGEBURG CLEAR 69 56 62 S8 29.97R BARNWELL FAIR 70 57 64 CALM 29.98S AIKEN FAIR 68 57 68 S7 29.99F MANNING FAIR 68 55 64 S6 29.99R COLUMBIA PTCLDY 69 56 62 S6 29.94S SUMTER CLEAR 62 56 81 S7 29.94R FLORENCE PTCLDY 70 62 76 S10 29.95R MYRTLE BEACH CLEAR 66 61 82 SW14 30.01R N MYRTLE BEACH PTCLDY 60 58 92 SW20 30.00R $$ GAZ063-065-086>088-099>101-113>116-118-119-134>141-150-050300- ...SOUTHEAST GEORGIA... CITY SKY/WX TMP DP RH WIND PRES REMARKS SAVANNAH ARPT PTCLDY 67 61 81 S9 30.02R HUNTER AAF CLEAR 65 63 91 S7 30.00R FORT STEWART CLEAR 69 62 79 S6 30.00 STATESBORO CLEAR 61 61 100 CALM 30.00R SYLVANIA CLEAR 68 61 79 S3 30.01R CLAXTON FAIR 70 61 73 S3 30.01R ...CSRA...CENTRAL AND FAR SOUTHEAST GEORGIA... CITY SKY/WX TMP DP RH WIND PRES REMARKS THOMSON PTCLDY 71 64 78 S3 30.00S AUGUSTA-BUSH MOCLDY 67 57 70 S6 29.96R AUGUSTA-DANIEL MOCLDY 72 59 63 S8 29.97R SWAINSBORO FAIR 73 48 40 SW6 30.00S VIDALIA CLEAR 70 61 73 SW7 30.01R EASTMAN FAIR 72 62 71 SW5 30.02S HAZLEHURST FAIR 73 62 69 SW7 30.01R ALMA CLEAR 70 60 70 S7 30.03R WAYCROSS CLEAR 72 65 77 SW6 30.05R JESUP FAIR 75 63 64 SW7 30.03S BAXLEY FAIR 70 61 73 SW5 30.02R BRUNSWICK CLEAR 64 59 82 CALM 30.06R SAINT SIMONS CLEAR 60 58 92 S9 30.05R $$ SCZ027-028-034-036>038-045-046-048>050-GAZ119-141-050300- ...LAKE AND SUPPLEMENTAL COASTAL OBSERVATIONS... STATION/POSITION TIME TEMP WIND PRES WAVE SWELL AIR SEA DIR/SP/G HT/PER HT/PER/DIR (UTC) (F) (DEG/KT/KT) (MB) (FT/S) (FT/S/D) UPR LAKE MARION NOT AVBL WINYAH BAY 0045 66 210/ 13 1015.0 LAKE MURRAY 0100 62 200/ 8/ 10 1013.2R ACE BASIN NERRS NOT AVBL FORT PULASKI 0100 60 52 200/ 8/ 17 1017.1R SAPELO ISLAND 0100 63 170/ 12 1017.0R $$ ANZ835-935-AMZ111-154-330-350-352-354-370-450-454-472-050300- ...C-MAN AND BUOY OBSERVATIONS... STATION/POSITION TIME TEMP WIND PRES WAVE SWELL AIR SEA DIR/SP/G HT/PER HT/PER/DIR (UTC) (F) (DEG/KT/KT) (MB) (FT/S) (FT/S/D) BUOY 41004 0150 72 69 190/ 19/ 21 1015.9S 6/ 6 2/10 BUOY 41008 0150 60 54 190/ 16/ 17 1017.1R 3/11 2/120/11 FOLLY BEACH CMAN 0200 55 220/ 11/ 12 1017.0R CAPERS NEARSHORE 0100 56 200/ 14/ 16 N/A FRIPP NEARSHORE 0100 57 200/ 12/ 14 1016.1R STATION/POSITION TIME TEMP WIND PRES WAVE SWELL AIR SEA DIR/SP/G HT/PER HT/PER/DIR (UTC) (F) (DEG/KT/KT) (MB) (FT/S) (FT/S/D) 5E ST. MARYS GA 0121 55 N/A 3/ 9 2/110/11 FRYING PAN BUOY 0150 69 63 200/ 17/ 21 1016.6R 6/ 7 3/140/10 BUOY 41025 NOT AVBL CAPE LOOKOUT NC 0200 62 220/ 14/ 17 1015.6R BUOY 41002 0150 73 74 210/ 19/ 23 1021.3R 6/10 3/120/10 BUOY 41010 0120 74 75 160/ 14/ 17 1021.0R ST AUGUSTINE FL 0200 65 180/ 7/ 7 1019.0R $$

USA.gov is the U.S. government's official web portal to all federal, state and local government web resources and services.